Other Surface Observations
Issued by NWS

Home | Current Version | Previous Version | Text Only | Print | Product List | Glossary On
Versions: 1 2 3 4 5 6 7 8 9 10 11 12 13 14 15 16 17 18 19 20 21 22 23 24 25 26 27 28 29 30 31 32 33 34 35 36 37 38 39 40 41 42 43 44 45 46 47 48 49 50
654
SXUS52 KTAE 122318
OSOTAE
OSOTAE
North Florida/South Alabama/Southwest Georgia Weather Roundup
National Weather Service Tallahassee Florida
600 PM EST FRI FEB 12 2016

Note: "fair" indicates few or no clouds below 12,000 feet with no
significant weather and/or obstructions to visibility.

!FLZ017-115-028-034-025-130000
...North Florida...

CITY           SKY/WX    TMP DP  RH WIND       PRES   REMARKS
TALLAHASSEE    PTCLDY    70  52  52 SW13      30.10S
APALACHICOLA   PTCLDY    65  59  81 W14       30.16S
PERRY          CLEAR     66  56  70 SW14G22   30.13S
CROSS CITY       N/A     66  57  72 W14G22    30.16R
JACKSONVILLE   PTCLDY    70  50  49 SW20G30   30.07R
$$

!FLZ112-006-005-002-011-130000
...Florida Panhandle...

CITY           SKY/WX    TMP DP  RH WIND       PRES   REMARKS
MARIANNA       CLEAR     71  50  47 W9        30.10R
BONIFAY        FAIR      69  50  50 W3        30.12R
PANAMA CITY NW FAIR      65  57  75 SW13      30.12R
TYNDALL AFB    CLEAR     64  59  83 W13       30.15R
TYND DRONE APT FAIR      63  60  89 MISG      30.15R
DE FUNIAK SPR  FAIR      70  46  42 W6        30.13R
EGLIN AFB      CLEAR     67  57  71 W13       30.13R
DESTIN         CLEAR     66  59  78 W12G18    30.14R
HURLBURT       CLEAR     65  56  75 SW9       30.13R
CRESTVIEW      CLEAR     71  48  43 W8        30.14R
PENSACOLA      CLEAR     69  56  62 W12       30.14R
$$

!ALZ063-066-130000
...South Alabama...

CITY           SKY/WX    TMP DP  RH WIND       PRES   REMARKS
DOTHAN         CLEAR     69  45  41 W13       30.14R
OZARK CAIRNS   PTCLDY    69  49  48 NW10      30.11R
FT RUCKER HELI CLEAR     70  45  40 NW6       30.11R
RUCKER HELI 3  FAIR      68  47  46 NW5       30.13R
RUCKER HELI 2  NOT AVBL
FLORALA APT    CLEAR     68  48  48 CALM      30.14R
ANDALUSIA      CLEAR     73  45  36 N10       30.12R
TROY           CLEAR     68  38  33 W10G17    30.13R
EUFALA         FAIR      68  39  34 W8        30.09R
MOBILE         PTCLDY    71  52  50 W7        30.16R
$$

!GAZ120>161-130000
...Southwest and South Central Georgia...

CITY           SKY/WX    TMP DP  RH WIND       PRES   REMARKS
THOMASVILLE    MOCLDY    70  50  49 W7        30.09R
BAINBRIDGE     CLEAR     72  48  43 W12       30.10R
MOODY AFB      CLEAR     71  49  45 W9G22     30.05R
VALDOSTA       CLEAR     71  48  43 VRB3      30.07R
MOULTRIE       CLEAR     70  50  49 W8        30.09R
BLAKELY        CLEAR     72  48  43 CALM      30.11R
ALBANY         CLEAR     69  45  41 W9        30.11R
TIFTON         FAIR      68  50  52 W10       30.08R
FITZGERALD     FAIR      68  49  50 W8        30.09S
CORDELE        FAIR      68  43  40 W12       30.08R
AMERICUS       FAIR      64  39  39 W10       30.09S
HOMERVILLE     FAIR      72  54  53 W8        30.06S
$$

!GMZ750-755-770-775-130000
...Coastal and Buoy Obs...

STATION/POSITION TIME  TEMP    WIND        PRES    VSBY  WAVE
                       AIR SEA DIR/SP/G                  HT/PER
                 (UTC) (F)     (DEG/KT/KT) (MB)    (MI)  (FT/S)
KEATON BEACH     2300   60     250/ 17/ 18 1020.5F
CEDAR KEY        2300   60     240/  7/  9 1022.4S
C TOWER          NOT AVBL
APALACHICOLA BUO 2250   69 67  260/ 14/ 17 1022.4R         4/ 6
PANAMA CITY BUOY 2250   68 70  280/ 16/ 17 1022.9R         4/ 5
MOBILE BUOY      NOT AVBL
ORANGE BCH AL BU 2250   65 66  250/ 16/ 19 1020.6R         3/ 5
$$




USA.gov is the U.S. government's official web portal to all federal, state and local government web resources and services.